TimeEDT,TemperatureF,Dew PointF,Humidity,Sea Level PressureIn,VisibilityMPH,Wind Direction,Wind SpeedMPH,Gust SpeedMPH,PrecipitationIn,Events,Conditions,WindDirDegrees,DateUTC
12:54 AM,44.1,36.0,73,29.87,10.0,SSW,9.2,-,N/A,,Mostly Cloudy,210,2013-10-20 04:54:00
1:54 AM,45.0,36.0,71,29.86,10.0,SW,11.5,-,N/A,,Overcast,230,2013-10-20 05:54:00
2:54 AM,46.0,36.0,68,29.86,10.0,SW,12.7,-,N/A,,Overcast,230,2013-10-20 06:54:00
3:54 AM,45.0,37.0,74,29.85,10.0,SW,9.2,-,N/A,,Partly Cloudy,220,2013-10-20 07:54:00
4:54 AM,43.0,36.0,76,29.85,10.0,SSW,8.1,-,N/A,,Clear,210,2013-10-20 08:54:00
5:54 AM,41.0,36.0,82,29.86,10.0,SSW,6.9,-,N/A,,Clear,210,2013-10-20 09:54:00
6:54 AM,39.9,35.1,83,29.87,10.0,SSW,8.1,-,N/A,,Clear,210,2013-10-20 10:54:00
7:54 AM,39.9,35.1,83,29.88,10.0,SSW,8.1,-,N/A,,Clear,210,2013-10-20 11:54:00
8:54 AM,41.0,36.0,82,29.91,10.0,SW,10.4,-,N/A,,Clear,220,2013-10-20 12:54:00
9:54 AM,43.0,37.0,80,29.93,10.0,SW,9.2,-,N/A,,Mostly Cloudy,230,2013-10-20 13:54:00
10:54 AM,46.9,37.9,71,29.93,10.0,WSW,6.9,-,N/A,,Scattered Clouds,240,2013-10-20 14:54:00
11:54 AM,51.1,37.9,61,29.93,10.0,SSW,8.1,-,N/A,,Clear,210,2013-10-20 15:54:00
12:54 PM,55.0,37.0,51,29.92,10.0,West,4.6,-,N/A,,Clear,260,2013-10-20 16:54:00
1:54 PM,55.9,37.0,49,29.90,10.0,SSW,11.5,-,N/A,,Overcast,210,2013-10-20 17:54:00
2:54 PM,57.0,39.0,51,29.86,10.0,South,11.5,-,0.00,,Overcast,190,2013-10-20 18:54:00
3:54 PM,57.9,39.9,51,29.85,10.0,South,13.8,-,N/A,,Overcast,190,2013-10-20 19:54:00
4:54 PM,61.0,42.1,50,29.83,10.0,South,10.4,19.6,N/A,,Mostly Cloudy,180,2013-10-20 20:54:00
5:54 PM,61.0,41.0,48,29.81,10.0,SSW,12.7,25.3,N/A,,Mostly Cloudy,200,2013-10-20 21:54:00
6:54 PM,59.0,41.0,51,29.81,10.0,South,10.4,-,N/A,,Clear,180,2013-10-20 22:54:00
7:54 PM,60.1,41.0,49,29.81,10.0,South,15.0,-,N/A,,Overcast,180,2013-10-20 23:54:00
8:54 PM,59.0,39.9,49,29.82,10.0,SSW,17.3,25.3,N/A,,Clear,200,2013-10-21 00:54:00
9:54 PM,57.9,39.9,51,29.83,10.0,SSW,17.3,23.0,N/A,,Clear,200,2013-10-21 01:54:00
10:54 PM,57.9,39.9,51,29.83,10.0,SSW,18.4,31.1,N/A,,Mostly Cloudy,210,2013-10-21 02:54:00
11:54 PM,57.0,41.0,55,29.85,10.0,SW,13.8,23.0,N/A,,Mostly Cloudy,230,2013-10-21 03:54:00